YG1CIC-13 Weather Reports


time (UTC)temp
C
wind
direction
speed
KPH
gust
KPH
rain 1hr
cm
rain 24hr
cm
rain mn
cm
humidity
%
barometer
mb
20260503010055 38 0 0.0 0.0 0.00 0.00 0.00 59
20260503005055 37 0 0.0 0.0 0.00 0.00 0.00 60
20260503004101 36 0 0.0 0.0 0.00 0.00 0.00 63
20260503003054 35 0 0.0 0.0 0.00 0.00 0.00 67
20260503002053 33 0 0.0 0.0 0.00 0.00 0.00 71
20260503001052 30 0 0.0 0.0 0.00 0.00 0.00 83
20260503000052 30 0 0.0 0.0 0.00 0.00 0.00 83
20260502235051 28 0 0.0 0.0 0.00 0.00 0.00 89
20260502234051 28 0 0.0 0.0 0.00 0.00 0.00 91
20260502233050 27 0 0.0 0.0 0.00 0.00 0.00 87
20260502232049 26 0 0.0 0.0 0.00 0.00 0.00 90
20260502231049 26 0 0.0 0.0 0.00 0.00 0.00 92
20260502230048 26 0 0.0 0.0 0.00 0.00 0.00 89
20260502225048 26 0 0.0 0.0 0.00 0.00 0.00 89
20260502224047 26 0 0.0 0.0 0.00 0.00 0.00 89
20260502223046 26 0 0.0 0.0 0.00 0.00 0.00 88
20260502222046 26 0 0.0 0.0 0.00 0.00 0.00 92
20260502221045 26 0 0.0 0.0 0.00 0.00 0.00 90
20260502220044 26 0 0.0 0.0 0.00 0.00 0.00 89
20260502215044 26 0 0.0 0.0 0.00 0.00 0.00 92
20260502214043 27 0 0.0 0.0 0.00 0.00 0.00 95
20260502213043 27 0 0.0 0.0 0.00 0.00 0.00 95
20260502212042 27 0 0.0 0.0 0.00 0.00 0.00 94
20260502211041 27 0 0.0 0.0 0.00 0.00 0.00 94
20260502210041 27 0 0.0 0.0 0.00 0.00 0.00 94
20260502205040 27 0 0.0 0.0 0.00 0.00 0.00 94
20260502204039 27 0 0.0 0.0 0.00 0.00 0.00 92
20260502203039 27 0 0.0 0.0 0.00 0.00 0.00 91
20260502202038 27 0 0.0 0.0 0.00 0.00 0.00 90
20260502201038 27 0 0.0 0.0 0.00 0.00 0.00 89
20260502200037 27 0 0.0 0.0 0.00 0.00 0.00 92
20260502195036 27 0 0.0 0.0 0.00 0.00 0.00 90
20260502194036 27 0 0.0 0.0 0.00 0.00 0.00 88
20260502193035 27 0 0.0 0.0 0.00 0.00 0.00 89
20260502192035 27 0 0.0 0.0 0.00 0.00 0.00 84
20260502191034 27 0 0.0 0.0 0.00 0.00 0.00 83
20260502190033 27 0 0.0 0.0 0.00 0.00 0.00 85
20260502185033 27 0 0.0 0.0 0.00 0.00 0.00 86
20260502184032 27 0 0.0 0.0 0.00 0.00 0.00 84
20260502183031 27 0 0.0 0.0 0.00 0.00 0.00 84
20260502182031 27 0 0.0 0.0 0.00 0.00 0.00 84
20260502181030 27 0 0.0 0.0 0.00 0.00 0.00 88
20260502164025 28 0 0.0 0.0 0.00 0.00 0.00 92
20260502163024 28 0 0.0 0.0 0.00 0.00 0.00 93
20260502162024 28 0 0.0 0.0 0.00 0.00 0.00 91
20260502161023 28 0 0.0 0.0 0.00 0.00 0.00 86
20260502152020 28 0 0.0 0.0 0.00 0.00 0.00 84
20260502151019 28 0 0.0 0.0 0.00 0.00 0.00 85
20260502123010 28 0 0.0 0.0 0.00 0.00 0.00 89
20260502122009 28 0 0.0 0.0 0.00 0.00 0.00 90
20260502121008 28 0 0.0 0.0 0.00 0.00 0.00 90
20260502115007 29 0 0.0 0.0 0.00 0.00 0.00 91
20260502114014 29 0 0.0 0.0 0.00 0.00 0.00 90
20260502113006 29 0 0.0 0.0 0.00 0.00 0.00 91
20260502112006 30 0 0.0 0.0 0.00 0.00 0.00 91
20260502111005 30 0 0.0 0.0 0.00 0.00 0.00 89
20260502110004 30 0 0.0 0.0 0.00 0.00 0.00 87
20260502105004 30 0 0.0 0.0 0.00 0.00 0.00 86
20260502104003 30 0 0.0 0.0 0.00 0.00 0.00 85
20260502103003 30 0 0.0 0.0 0.00 0.00 0.00 86
20260502102002 31 0 0.0 0.0 0.00 0.00 0.00 80
20260502101001 31 0 0.0 0.0 0.00 0.00 0.00 85
20260502090958 32 0 0.0 0.0 0.00 0.00 0.00 78
20260502070951 34 0 0.0 0.0 0.00 0.00 0.00 64
20260502065950 35 0 0.0 0.0 0.00 0.00 0.00 62
20260502064950 36 0 0.0 0.0 0.00 0.00 0.00 60
20260502063949 36 0 0.0 0.0 0.00 0.00 0.00 61
20260502062949 36 0 0.0 0.0 0.00 0.00 0.00 60
20260502061948 37 0 0.0 0.0 0.00 0.00 0.00 59
20260502060947 36 0 0.0 0.0 0.00 0.00 0.00 60
20260502055947 36 0 0.0 0.0 0.00 0.00 0.00 58
20260502054946 37 0 0.0 0.0 0.00 0.00 0.00 58
20260502053946 37 0 0.0 0.0 0.00 0.00 0.00 58
20260502052945 37 0 0.0 0.0 0.00 0.00 0.00 56
20260502051944 37 0 0.0 0.0 0.00 0.00 0.00 58
20260502050944 37 0 0.0 0.0 0.00 0.00 0.00 57
20260502045943 37 0 0.0 0.0 0.00 0.00 0.00 56
20260502044943 37 0 0.0 0.0 0.00 0.00 0.00 56
20260502043944 37 0 0.0 0.0 0.00 0.00 0.00 56
20260502042942 37 0 0.0 0.0 0.00 0.00 0.00 55
20260502041941 37 0 0.0 0.0 0.00 0.00 0.00 57
20260502040941 38 0 0.0 0.0 0.00 0.00 0.00 55
20260502035940 37 0 0.0 0.0 0.00 0.00 0.00 56
20260502034940 37 0 0.0 0.0 0.00 0.00 0.00 53
20260502033939 37 0 0.0 0.0 0.00 0.00 0.00 54
20260502032938 37 0 0.0 0.0 0.00 0.00 0.00 53
20260502031938 39 0 0.0 0.0 0.00 0.00 0.00 51
20260502030937 39 0 0.0 0.0 0.00 0.00 0.00 51
20260502025937 40 0 0.0 0.0 0.00 0.00 0.00 48
20260502024936 41 0 0.0 0.0 0.00 0.00 0.00 48
20260502023942 40 0 0.0 0.0 0.00 0.00 0.00 49
20260502022935 40 0 0.0 0.0 0.00 0.00 0.00 48
20260502021934 46 0 0.0 0.0 0.00 0.00 0.00 40
20260502020933 46 0 0.0 0.0 0.00 0.00 0.00 40
20260502015933 45 0 0.0 0.0 0.00 0.00 0.00 41
20260502014932 43 0 0.0 0.0 0.00 0.00 0.00 44
20260502013932 42 0 0.0 0.0 0.00 0.00 0.00 46
20260502012931 42 0 0.0 0.0 0.00 0.00 0.00 46
20260502011931 42 0 0.0 0.0 0.00 0.00 0.00 46
20260502010930 42 0 0.0 0.0 0.00 0.00 0.00 47